Time,TemperatureF,DewpointF,PressureIn,WindDirection,WindDirectionDegrees,WindSpeedMPH,WindSpeedGustMPH,Humidity,HourlyPrecipIn,Conditions,Clouds,dailyrainin,SoftwareType,DateUTC
2013-01-14 07:23:00,51.0,50.0,29.98,SSW,199,2.0,8.0,98,0.00,,,0.00,,2013-01-14 12:23:00,
2013-01-14 07:33:00,51.0,50.0,29.98,South,189,2.0,7.0,98,0.00,,,0.00,,2013-01-14 12:33:00,
2013-01-14 07:43:00,51.0,50.0,29.98,South,189,2.0,7.0,98,0.00,,,0.00,,2013-01-14 12:43:00,
2013-01-14 07:53:00,51.0,50.0,29.98,SSW,199,0.0,12.0,98,0.00,,,0.00,,2013-01-14 12:53:00,
2013-01-14 08:03:00,51.0,50.0,29.96,SSW,213,3.0,10.0,97,0.00,,,0.00,,2013-01-14 13:03:00,
2013-01-14 08:12:00,51.0,50.0,29.96,SSW,213,3.0,10.0,97,0.00,,,0.00,,2013-01-14 13:12:00,
2013-01-14 08:23:00,50.0,49.0,29.97,SW,221,6.0,10.0,97,0.00,,,0.00,,2013-01-14 13:23:00,
2013-01-14 08:33:00,50.0,49.0,29.96,South,185,1.0,10.0,97,0.00,,,0.00,,2013-01-14 13:33:00,
2013-01-14 08:43:00,50.0,49.0,29.96,South,185,1.0,10.0,97,0.00,,,0.00,,2013-01-14 13:43:00,
2013-01-14 08:53:00,50.0,49.0,29.96,SSW,198,1.0,7.0,97,0.00,,,0.00,,2013-01-14 13:53:00,
2013-01-14 09:03:00,50.0,49.0,29.95,SW,218,3.0,7.0,98,0.00,,,0.00,,2013-01-14 14:03:00,
2013-01-14 09:13:00,50.0,49.0,29.95,SW,218,3.0,7.0,98,0.00,,,0.00,,2013-01-14 14:13:00,
2013-01-14 09:23:00,51.0,50.0,29.97,WNW,288,4.0,12.0,98,0.00,,,0.00,,2013-01-14 14:23:00,
2013-01-14 09:33:00,51.0,50.0,30.00,SSW,196,2.0,9.0,98,0.00,,,0.00,,2013-01-14 14:33:00,
2013-01-14 09:43:00,51.0,50.0,30.00,SSW,196,2.0,9.0,98,0.00,,,0.00,,2013-01-14 14:43:00,
2013-01-14 09:53:00,51.0,50.0,30.01,South,186,4.0,10.0,98,0.00,,,0.00,,2013-01-14 14:53:00,
2013-01-14 10:03:00,51.0,50.0,30.01,SSW,207,4.0,6.0,98,0.00,,,0.00,,2013-01-14 15:03:00,
2013-01-14 10:12:00,51.0,50.0,30.01,SSW,207,4.0,6.0,98,0.00,,,0.00,,2013-01-14 15:12:00,
2013-01-14 10:23:00,51.0,50.0,30.00,SSW,199,1.0,7.0,98,0.00,,,0.00,,2013-01-14 15:23:00,
2013-01-14 10:33:00,52.0,51.0,30.00,SSW,202,0.0,8.0,98,0.00,,,0.00,,2013-01-14 15:33:00,
2013-01-14 10:43:00,52.0,51.0,30.00,SSW,202,0.0,8.0,98,0.00,,,0.00,,2013-01-14 15:43:00,
2013-01-14 10:53:00,52.0,51.0,30.01,WNW,294,0.0,0.0,98,0.00,,,0.00,,2013-01-14 15:53:00,
2013-01-14 11:03:00,52.0,51.0,30.00,SE,135,0.0,1.0,98,0.00,,,0.00,,2013-01-14 16:03:00,
2013-01-14 11:12:00,52.0,51.0,30.00,SE,135,0.0,1.0,98,0.00,,,0.00,,2013-01-14 16:12:00,
2013-01-14 11:23:00,52.0,51.0,30.01,SE,138,0.0,0.0,98,0.00,,,0.00,,2013-01-14 16:23:00,
2013-01-14 11:33:00,52.0,51.0,30.01,WNW,286,0.0,2.0,98,0.00,,,0.00,,2013-01-14 16:33:00,
2013-01-14 11:43:00,52.0,51.0,30.01,WNW,286,0.0,2.0,98,0.00,,,0.00,,2013-01-14 16:43:00,
2013-01-14 11:53:00,52.0,51.0,30.01,WNW,286,0.0,1.0,98,0.00,,,0.00,,2013-01-14 16:53:00,
2013-01-14 12:03:00,53.0,52.0,30.00,WNW,290,0.0,4.0,98,0.00,,,0.00,,2013-01-14 17:03:00,
2013-01-14 12:12:00,53.0,52.0,30.00,WNW,290,0.0,4.0,98,0.00,,,0.00,,2013-01-14 17:12:00,
2013-01-14 12:23:00,54.0,53.0,30.00,NW,314,0.0,7.0,98,0.00,,,0.00,,2013-01-14 17:23:00,
2013-01-14 12:33:00,55.0,54.0,30.00,NW,313,0.0,5.0,97,0.00,,,0.00,,2013-01-14 17:33:00,
2013-01-14 12:43:00,55.0,54.0,30.00,NW,313,0.0,5.0,97,0.00,,,0.00,,2013-01-14 17:43:00,
2013-01-14 12:54:00,55.0,54.0,30.01,WNW,290,2.0,6.0,96,0.00,,,0.00,,2013-01-14 17:54:00,
2013-01-14 13:03:00,57.0,55.0,29.99,NW,304,0.0,6.0,93,0.00,,,0.00,,2013-01-14 18:03:00,
2013-01-14 13:13:00,57.0,54.0,29.99,NW,309,0.0,1.0,90,0.00,,,0.00,,2013-01-14 18:13:00,
2013-01-14 13:23:00,57.0,54.0,29.99,NW,309,0.0,1.0,90,0.00,,,0.00,,2013-01-14 18:23:00,
2013-01-14 13:33:00,59.0,55.0,30.00,NW,309,0.0,1.0,86,0.00,,,0.00,,2013-01-14 18:33:00,
2013-01-14 13:43:00,59.0,55.0,30.00,NW,309,0.0,1.0,86,0.00,,,0.00,,2013-01-14 18:43:00,
2013-01-14 13:53:00,59.0,54.0,30.00,NW,314,0.0,4.0,84,0.00,,,0.00,,2013-01-14 18:53:00,
2013-01-14 14:03:00,60.0,55.0,30.00,NW,315,0.0,4.0,83,0.00,,,0.00,,2013-01-14 19:03:00,
2013-01-14 14:12:00,60.0,55.0,30.00,NW,315,0.0,4.0,83,0.00,,,0.00,,2013-01-14 19:12:00,
2013-01-14 14:22:00,60.0,53.0,30.02,NW,304,0.0,7.0,79,0.00,,,0.00,,2013-01-14 19:22:00,
2013-01-14 14:33:00,60.0,53.0,30.02,WNW,300,1.0,8.0,79,0.00,,,0.00,,2013-01-14 19:33:00,
2013-01-14 14:43:00,60.0,53.0,30.02,WNW,300,1.0,8.0,79,0.00,,,0.00,,2013-01-14 19:43:00,
2013-01-14 14:53:00,60.0,53.0,30.03,WNW,295,0.0,5.0,79,0.00,,,0.00,,2013-01-14 19:53:00,
2013-01-14 15:03:00,60.0,51.0,30.04,NW,318,0.0,10.0,73,0.00,,,0.00,,2013-01-14 20:03:00,
2013-01-14 15:13:00,60.0,51.0,30.04,NW,318,0.0,10.0,73,0.00,,,0.00,,2013-01-14 20:13:00,
2013-01-14 15:23:00,59.0,50.0,30.05,WNW,298,1.0,10.0,73,0.00,,,0.00,,2013-01-14 20:23:00,
2013-01-14 15:33:00,59.0,50.0,30.04,NNW,337,0.0,7.0,73,0.00,,,0.00,,2013-01-14 20:33:00,
2013-01-14 15:43:00,59.0,50.0,30.04,NNW,337,0.0,7.0,73,0.00,,,0.00,,2013-01-14 20:43:00,
2013-01-14 15:53:00,58.0,48.0,30.05,NNW,340,0.0,6.0,70,0.00,,,0.00,,2013-01-14 20:53:00,
2013-01-14 16:03:00,58.0,47.0,30.07,NNW,332,1.0,6.0,67,0.00,,,0.00,,2013-01-14 21:03:00,
2013-01-14 16:12:00,58.0,47.0,30.07,NNW,332,1.0,6.0,67,0.00,,,0.00,,2013-01-14 21:12:00,
2013-01-14 16:23:00,57.0,45.0,30.07,NW,321,1.0,7.0,65,0.00,,,0.00,,2013-01-14 21:23:00,
2013-01-14 16:33:00,57.0,44.0,30.09,NW,311,0.0,6.0,62,0.00,,,0.00,,2013-01-14 21:33:00,
2013-01-14 16:43:00,57.0,44.0,30.09,NW,311,0.0,6.0,62,0.00,,,0.00,,2013-01-14 21:43:00,
2013-01-14 16:53:00,55.0,40.0,30.08,NW,306,2.0,8.0,57,0.00,,,0.00,,2013-01-14 21:53:00,
2013-01-14 17:03:00,54.0,38.0,30.10,West,280,0.0,10.0,55,0.00,,,0.00,,2013-01-14 22:03:00,
2013-01-14 17:12:00,54.0,38.0,30.10,West,280,0.0,10.0,55,0.00,,,0.00,,2013-01-14 22:12:00,
2013-01-14 17:23:00,54.0,38.0,30.09,NNW,329,1.0,5.0,55,0.00,,,0.00,,2013-01-14 22:23:00,
2013-01-14 17:33:00,53.0,38.0,30.11,NNW,329,0.0,1.0,57,0.00,,,0.00,,2013-01-14 22:33:00,
2013-01-14 17:43:00,53.0,38.0,30.11,NNW,329,0.0,1.0,57,0.00,,,0.00,,2013-01-14 22:43:00,
2013-01-14 17:53:00,53.0,39.0,30.11,NW,309,0.0,7.0,58,0.00,,,0.00,,2013-01-14 22:53:00,
2013-01-14 18:03:00,52.0,38.0,30.11,NW,308,0.0,4.0,59,0.00,,,0.00,,2013-01-14 23:03:00,
2013-01-14 18:12:00,52.0,38.0,30.11,NW,308,0.0,4.0,59,0.00,,,0.00,,2013-01-14 23:12:00,
2013-01-14 18:23:00,51.0,38.0,30.11,NW,304,1.0,5.0,60,0.00,,,0.00,,2013-01-14 23:23:00,
2013-01-14 18:33:00,51.0,37.0,30.11,WNW,288,0.0,6.0,58,0.00,,,0.00,,2013-01-14 23:33:00,
2013-01-14 18:43:00,51.0,37.0,30.11,WNW,288,0.0,6.0,58,0.00,,,0.00,,2013-01-14 23:43:00,
2013-01-14 18:53:00,51.0,36.0,30.12,North,360,0.0,2.0,56,0.00,,,0.00,,2013-01-14 23:53:00,
2013-01-14 19:03:00,51.0,37.0,30.11,North,360,1.0,4.0,58,0.00,,,0.00,,2013-01-15 00:03:00,
2013-01-14 19:12:00,51.0,37.0,30.11,North,360,1.0,4.0,58,0.00,,,0.00,,2013-01-15 00:12:00,
2013-01-14 19:23:00,50.0,36.0,30.12,NW,318,0.0,3.0,59,0.00,,,0.00,,2013-01-15 00:23:00,
2013-01-14 19:33:00,49.0,34.0,30.13,NNW,345,0.0,4.0,57,0.00,,,0.00,,2013-01-15 00:33:00,
2013-01-14 19:43:00,49.0,34.0,30.13,NNW,345,0.0,4.0,57,0.00,,,0.00,,2013-01-15 00:43:00,
2013-01-14 19:53:00,49.0,34.0,30.13,NW,317,2.0,10.0,55,0.00,,,0.00,,2013-01-15 00:53:00,
2013-01-14 20:00:00,48.0,34.0,30.15,West,280,1.0,12.0,57,0.00,,,0.00,,2013-01-15 01:00:00,
2013-01-14 20:02:00,49.0,34.0,30.13,North,349,2.0,5.0,56,0.00,,,0.00,,2013-01-15 01:02:00,
2013-01-14 20:12:00,48.0,34.0,30.15,West,280,1.0,12.0,57,0.00,,,0.00,,2013-01-15 01:12:00,
2013-01-14 20:22:00,48.0,34.0,30.15,West,280,1.0,12.0,57,0.00,,,0.00,,2013-01-15 01:22:00,
2013-01-14 20:32:00,48.0,34.0,30.15,West,280,1.0,12.0,57,0.00,,,0.00,,2013-01-15 01:32:00,
2013-01-14 20:43:00,48.0,34.0,30.15,West,280,1.0,12.0,57,0.00,,,0.00,,2013-01-15 01:43:00,
2013-01-14 20:52:00,48.0,34.0,30.15,West,280,1.0,12.0,57,0.00,,,0.00,,2013-01-15 01:52:00,